Regional Weather Roundup
Issued by NWS

Home | Current Version | Previous Version | Text Only | Print | Product List | Glossary On
Versions: 1 2 3 4 5 6 7 8 9 10 11 12 13 14 15 16 17 18 19 20 21 22 23 24 25 26 27 28 29 30 31 32 33 34 35 36 37 38 39 40 41 42 43 44 45 46 47 48 49 50
000
ASUS43 KTOP 051759
RWRKS

WEATHER ROUNDUP FOR KANSAS
NATIONAL WEATHER SERVICE GOODLAND KS
100 PM CDT SUN JUL 05 2015

NOTE:  "FAIR" INDICATES FEW OR NO CLOUDS BELOW 12,000 FEET WITH NO
SIGNIFICANT WEATHER AND/OR OBSTRUCTIONS TO VISIBILITY.

KSZ001>006-013>018-027>032-041>047-051900-
NORTHWEST KANSAS

CITY           SKY/WX    TMP DP  RH WIND       PRES   REMARKS
GOODLAND       SUNNY     95  56  26 S15G22    29.87S
6HR MIN TEMP:  67; 6HR MAX TEMP:  95;

HAYS           SUNNY     99  64  32 SW24G33   29.84F HX 101
HILL CITY      SUNNY     99  64  31 S20G25    29.82F HX 101
6HR MIN TEMP:  74; 6HR MAX TEMP:  99;

RUSSELL        LGT RAIN  93  66  40 S22G28    29.84F HX  96
6HR MIN TEMP:  71; 6HR MAX TEMP:  94; 6HR PCP: TRACE;

$$

KSZ061>065-074>080-084>089-051900-
SOUTHWEST KANSAS

CITY           SKY/WX    TMP DP  RH WIND       PRES   REMARKS
DODGE CITY     SUNNY     93  61  34 SW24G32   29.91F
6HR MIN TEMP:  71; 6HR MAX TEMP:  93;

ELKHART          N/A     93  57  29 S18         N/A
GARDEN CITY    SUNNY     92  65  40 S22G33    29.89F
6HR MIN TEMP:  69; 6HR MAX TEMP:  92;

GREAT BEND     MOSUNNY   93  66  40 S23G31    29.87F HX  96
LIBERAL        SUNNY     91  64  40 S22G30    29.96S
$$

KSZ066>073-081>083-090>101-051900-
SOUTHEAST KANSAS

CITY           SKY/WX    TMP DP  RH WIND       PRES   REMARKS
CHANUTE        MOSUNNY   88  74  63 S9        29.97F HX  96
6HR MIN TEMP:  71; 6HR MAX TEMP:  88;

COFFEYVILLE    PTSUNNY   89  74  60 S10G20    29.96F HX  98
6HR MIN TEMP:  73; 6HR MAX TEMP:  89; 6HR PCP: TRACE;

HUTCHINSON     MOSUNNY   94  67  41 S22G28    29.91F HX  97
6HR MIN TEMP:  73; 6HR MAX TEMP:  96;

MEDICINE LODGE   N/A     97  62  31 S20G29    29.89F HX  98
NEWTON         SUNNY     91  68  46 S14G23    29.96S HX  95
PARSONS        MOSUNNY   88  75  65 S9        29.98F HX  97
6HR MIN TEMP:  73; 6HR MAX TEMP:  88;

WICHITA INTL   MOSUNNY   93  70  46 S14G22    29.91F HX  99
6HR MIN TEMP:  74; 6HR MAX TEMP:  93;

WICHITA JABRA  SUNNY     90  70  51 S13G22    29.93F HX  95
6HR MIN TEMP:  73; 6HR MAX TEMP:  91;

WICHITA MCCONL SUNNY     92  71  50 SE13      29.93F HX  98
WINFIELD       SUNNY     92  72  51 S17G23    29.95F HX  99
6HR MIN TEMP:  73; 6HR MAX TEMP:  92;

$$

KSZ007>012-019>026-033>040-048>060-102>105-051900-
NORTHEAST KANSAS

CITY           SKY/WX    TMP DP  RH WIND       PRES   REMARKS
CONCORDIA      SUNNY     92  70  48 S16G24    29.86F HX  97
6HR MIN TEMP:  73; 6HR MAX TEMP:  92;

EMPORIA        MOSUNNY   81  72  74 SE13      29.94F
6HR MIN TEMP:  70; 6HR MAX TEMP:  83; 6HR PCP:  0.19;

LAWRENCE       PTSUNNY   87  74  64 S12       29.94F HX  95
6HR MIN TEMP:  67; 6HR MAX TEMP:  87;

MANHATTAN      MOSUNNY   91  72  53 S17       29.89F HX  98
6HR MIN TEMP:  72; 6HR MAX TEMP:  91;

OLATHE IND     PTSUNNY   86  73  65 S13       29.97F
6HR MIN TEMP:  69; 6HR MAX TEMP:  86;

OLATHE EXE     PTSUNNY   82  73  74 S13       29.97F
6HR MIN TEMP:  67; 6HR MAX TEMP:  83;

SALINA         SUNNY     96  69  41 S14G25    29.88F HX 102
6HR MIN TEMP:  77; 6HR MAX TEMP:  96; 6HR PCP: TRACE;

TOPEKA BILLARD PTSUNNY   88  73  61 S12       29.94S THUNDER HX  95
6HR MIN TEMP:  70; 6HR MAX TEMP:  88;

TOPEKA FORBES  PTSUNNY   87  72  60 S15       29.94F
6HR MIN TEMP:  69; 6HR MAX TEMP:  89;

$$



USA.gov is the U.S. government's official web portal to all federal, state and local government web resources and services.